Tracking 32941 objects as of 15-Jan-2026
HD Live streaming from Space Station
objects crossing your sky now

SSA

Track SSA now!
10-day predictions
SSA is classified as:


NORAD ID: 13844
Int'l Code: 1983-008E
Perigee: 447.6 km
Apogee: 1,516.8 km
Inclination: 63.3 °
Period: 104.6 minutes
Semi major axis: 7353 km
RCS: Unknown
Launch date: February 9, 1983
Source: United States (US)
Launch site: AIR FORCE WESTERN TEST RANGE (AFWTR)
Your satellite tracking list
Your tracking list is empty




NASA's NSSDC Master Catalog

Two Line Element Set (TLE):
1 13844U 83008E   26015.14340396  .00001318  00000-0  19014-3 0  9994
2 13844  63.3095  89.0758 0727000 132.2442 234.2667 13.76861207337777
Source of the keplerian elements: McCants